Regional Weather Roundup
Issued by NWS Sterling, VA

Home | Current Version | Previous Version | Text Only | Print | Product List | Glossary On
Versions: 1 2 3 4 5 6 7 8 9 10 11 12 13 14 15 16 17 18 19 20 21 22 23 24 25 26 27 28
000
ASUS41 KLWX 300310
RWRLWX

REGIONAL WEATHER ROUNDUP
NATIONAL WEATHER SERVICE BALTIMORE MD/WASHINGTON DC
1100 PM EDT SUN MAY 29 2016

Note: "FAIR" indicates few or no clouds below 12,000 feet
with no significant weather and/or obstructions to visibility.
 TC=TEMPERATURE CELSIUS

 * =Non NWS site. Station does not report precipitation (e.g. rain,
    snow, etc.), thunder, or fog.

DCZ001-MDZ009-015-VAZ040>042-051-053>054-300400-
WASHINGTON METRO

CITY           SKY/WX    TMP DP  RH WIND       PRES   REMARKS
WASHINGTON NAT LGT RAIN  68  65  90 NE7       30.06F
DULLES         CLOUDY    69  66  90 CALM      30.07F
ANDREWS AFB    CLOUDY    66  64  94 N6        30.05F
FT BELVOIR     MOCLDY    69  67  95 NW5       30.06F
QUANTICO       FAIR      70  67  90 CALM      30.06F
COLLEGE PARK*  CLOUDY    64  63  94 CALM      30.06F
LEESBURG*      CLOUDY    70  70 100 CALM      30.08S
MANASSAS*      CLOUDY    68  66  94 CALM      30.06F

$$

MDZ006>007-011-014-300400-
BALTIMORE METRO

CITY           SKY/WX    TMP DP  RH WIND       PRES   REMARKS
BWI AIRPORT    LGT RAIN  67  64  90 W5        30.05F
MD SCIENCE CTR   N/A     71  64  78 MISG      30.06F
MARTIN STATE   LGT RAIN  70  70 100 CALM      30.07S
ANNAPOLIS      LGT RAIN  71  69  93 NW3       30.04F FOG
FORT MEADE*    CLOUDY    64  64 100 CALM      30.08F

$$

MDZ012-015-019>023-300400-
MARYLAND EASTERN SHORE

CITY           SKY/WX    TMP DP  RH WIND       PRES   REMARKS
OCEAN CITY     CLOUDY   N/A N/A N/A VRB3      30.08F
SALISBURY      CLOUDY    73  70  90 SE7       30.07S
BAY BRIDGE AP* CLOUDY    72  70  94 NW3       30.05F FOG
CAMBRIDGE*     CLOUDY    72  70  94 SE7       30.05F
EASTON*        CLOUDY    75  75 100 SE6       30.08F

$$

MDZ017>025-300400-
SOUTHERN MARYLAND

CITY           SKY/WX    TMP DP  RH WIND       PRES   REMARKS
PATUXENT RIVER CLOUDY    72  70  93 SE5       30.04S
ST INIGOES     CLOUDY    73  71  93 SE8       30.04F
LEONARDTOWN*   CLOUDY    72  70  94 CALM      30.06S

$$

MDZ003>005-300400-
NORTH CENTRAL MARYLAND

CITY           SKY/WX    TMP DP  RH WIND       PRES   REMARKS
FREDERICK*     DRIZZLE   66  66 100 CALM      30.09F
HAGERSTOWN APT LGT RAIN  71  64  78 S8        30.07R
WESTMINSTER*   LGT RAIN  66  64  94 CALM      30.08F

$$

MDZ501>502-300400-
WESTERN MARYLAND

CITY           SKY/WX    TMP DP  RH WIND       PRES   REMARKS
OAKLAND*       CLOUDY    59  57  94 S8        30.14S
CUMBERLAND*    CLOUDY    68  68 100 CALM      30.11S

$$

VAZ025>031-300400-
SHENANDOAH VALLEY

CITY           SKY/WX    TMP DP  RH WIND       PRES   REMARKS
WINCHESTER*    DRIZZLE   68  63  83 SW6       30.08S
FRONT ROYAL*   CLOUDY    66  66 100 S3        30.08S
LURAY*         CLOUDY    64  64 100 SW6       30.10S
NEW MARKET*    MOCLDY    62  61  97 W3        30.10S
STAUNTON*      RAIN      60  60  98 CALM      30.14F
WAYNESBORO*    CLOUDY    59  58  96 SW3       30.14S

$$

WVZ021-048>050-054>055-300400-
EASTERN WEST VIRGINIA PANHANDLE

CITY           SKY/WX    TMP DP  RH WIND       PRES   REMARKS
MARTINSBURG    LGT RAIN  67  65  93 S6        30.06S
PETERSBURG*    FAIR      64  62  93 CALM      30.11S

$$

VAZ036>039-050-300400-
CENTRAL FOOTHILLS

CITY           SKY/WX    TMP DP  RH WIND       PRES   REMARKS
CHARLOTTESVILL CLOUDY    68  60  75 CALM      30.09R
CULPEPER*      MOCLDY    67  66  99 CALM      30.07F
ORANGE*        CLOUDY    66  66 100 SW3       30.10R
GORDONSVILLE*  CLOUDY    68  66  94 CALM      30.08R
WARRENTON*     MOCLDY    67  63  85 CALM      30.07S

$$

VAZ055>057-300400-
NORTH AND CENTRAL PIEDMONT

CITY           SKY/WX    TMP DP  RH WIND       PRES   REMARKS
FREDERICKSBRG* CLOUDY    67  67  99 CALM      30.06S
STAFFORD*      CLOUDY    66  64  95 CALM      30.10F

$$

NCZ024-NYZ072-PAZ021-071-VAZ022-071-300400-
OTHER REGIONAL OBSERVATIONS

CITY           SKY/WX    TMP DP  RH WIND       PRES   REMARKS
NEW YORK CITY  MOCLDY    71  63  75 VRB3      30.09S
PHILADELPHIA   LGT RAIN  72  69  90 S6        30.08S FOG
PITTSBURGH     MOCLDY    67  59  75 CALM      30.06R
ROANOKE        MOCLDY    62  60  93 N6        30.14S
RICHMOND       CLOUDY    69  68  96 N7        30.05S
RALEIGH        CLOUDY    67  64  90 NE6       30.05S

$$

ANZ530>537-300400-
MARINE OBSERVATIONS

STATION/POSITION TIME  TEMP    WIND        PRES
                       AIR SEA DIR/SP/G
                 (UTC) (F)     (DEG/KT/KT) (MB)
THOMAS PT LIGHT  0300   70 69  350/  5/  5 1018.8F
BALT KEY BRIDGE  0200   71                   N/A
COVE POINT       0200   70                   N/A
LEWISETTA        0200   73 70                N/A
SOLOMONS ISLAND  0200   71 68                N/A
PINEY POINT      0200          150/  8/  8   N/A

$$





USA.gov is the U.S. government's official web portal to all federal, state and local government web resources and services.